This demonstration page uses our WeatherBlox Daily Observations layout. Learn more.

Left ArrowRight Arrow

34.74481, -87.66753

Hourly Observations for October 21, 2021

Temp ( °F °C ) Dew Point ( °F °C ) Humidity (%) Winds ( mph kmh ) Pressure ( in mb ) Visibility ( mi km ) Precip ( " mm )
12:53 am 00:53 Clear 67 19.4 60 15.6 79 79 SW 5 7 30.10 1019 10 16 N/A
1:53 am 01:53 Mostly Cloudy 68 20 61 16.1 78 78 S 5 7 30.09 1019 10 16 N/A
2:53 am 02:53 Partly Cloudy 68 20 61 16.1 78 78 SSW 3 6 30.09 1019 10 16 N/A
3:53 am 03:53 Mostly Cloudy 68 20 61 16.1 78 78 S 3 6 30.08 1019 10 16 N/A
4:14 am 04:14 Mostly Cloudy 68 20 61 16.1 78 78 S 3 6 30.08 1019 10 16 N/A
4:44 am 04:44 Cloudy 68 20 61 16.1 78 78 S 3 6 30.08 1019 10 16 N/A
4:53 am 04:53 Cloudy 68 20 62 16.7 81 81 SSE 3 6 30.07 1018 10 16 N/A
5:05 am 05:05 Cloudy 68 20 62 16.7 81 81 N N/A 30.08 1019 10 16 N/A
5:53 am 05:53 Cloudy 68 20 62 16.7 81 81 N N/A 30.08 1019 10 16 0.01 0.25
6:08 am 06:08 Cloudy 67 19.4 63 17.2 87 87 N N/A 30.08 1019 10 16 N/A
6:33 am 06:33 Mostly Cloudy 66 18.9 62 16.7 87 87 S 3 6 30.09 1019 10 16 N/A
6:44 am 06:44 Mostly Cloudy 68 20 63 17.2 84 84 SSE 3 6 30.09 1019 10 16 N/A
6:53 am 06:53 Cloudy 68 20 63 17.2 84 84 SE 3 6 30.09 1019 10 16 N/A
7:06 am 07:06 Cloudy 68 20 63 17.2 84 84 SE 3 6 30.09 1019 10 16 N/A
7:53 am 07:53 Cloudy 69 20.6 65 18.3 87 87 N N/A 30.10 1019 8 13 N/A
8:33 am 08:33 Cloudy 70 21.1 65 18.3 84 84 WSW 5 7 30.11 1019 10 16 N/A
8:44 am 08:44 Cloudy 71 21.7 65 18.3 81 81 WSW 6 9 30.10 1019 10 16 N/A
8:53 am 08:53 Cloudy 71 21.7 65 18.3 81 81 WSW 5 7 30.10 1019 10 16 N/A
9:29 am 09:29 Cloudy 72 22.2 65 18.3 79 79 SSW 9 15 30.10 1019 10 16 N/A
9:53 am 09:53 Cloudy 73 22.8 65 18.3 76 76 WSW 8 13 30.10 1019 10 16 N/A
10:53 am 10:53 Cloudy 75 23.9 65 18.3 71 71 W 12 19 30.10 1019 10 16 N/A
11:53 am 11:53 Cloudy 77 25 66 18.9 69 69 W 9 15 30.09 1019 10 16 N/A
12:38 pm 12:38 Cloudy 78 25.6 65 18.3 64 64 WSW 13 20 30.06 1018 10 16 N/A
12:53 pm 12:53 Cloudy 78 25.6 65 18.3 64 64 WSW 10 17 30.06 1018 10 16 N/A
1:46 pm 13:46 Mostly Cloudy 79 26.1 65 18.3 62 62 WSW 14 22 30.03 1017 10 16 N/A
1:53 pm 13:53 Mostly Cloudy 79 26.1 65 18.3 62 62 SW 16 26 30.03 1017 10 16 N/A
2:53 pm 14:53 Partly Cloudy 80 26.7 66 18.9 62 62 SW 12 19 30.00 1016 10 16 N/A
3:18 pm 15:18 Mostly Cloudy 79 26.1 66 18.9 65 65 WSW 10 17 29.99 1015 10 16 N/A
3:34 pm 15:34 Mostly Cloudy with Nearby Thunderstorms 79 26.1 66 18.9 65 65 WSW 15 24 30.00 1016 10 16 N/A
3:42 pm 15:42 Mostly Cloudy with Thunderstorms 78 25.6 66 18.9 67 67 W 16 26 30.00 1016 10 16 N/A
3:53 pm 15:53 Cloudy with Light Rain 73 22.8 63 17.2 71 71 WNW 14 22 30.01 1016 10 16 0.00 0.00
4:00 pm 16:00 Cloudy with Light Rain 72 22.2 63 17.2 73 73 WNW 15 24 30.00 1016 10 16 0.01 0.25
4:13 pm 16:13 Cloudy with Nearby Thunderstorms 73 22.8 65 18.3 76 76 WNW 8 13 30.00 1016 10 16 0.01 0.25
4:33 pm 16:33 Mostly Cloudy 75 23.9 65 18.3 71 71 WNW 9 15 30.00 1016 10 16 0.01 0.25
4:53 pm 16:53 Mostly Sunny 76 24.4 65 18.3 69 69 WNW 10 17 30.00 1016 10 16 0.01 0.25
5:53 pm 17:53 Sunny 74 23.3 65 18.3 74 74 WNW 9 15 30.00 1016 10 16 N/A
6:53 pm 18:53 Clear 71 21.7 64 17.8 79 79 NW 5 7 30.02 1017 10 16 N/A
7:53 pm 19:53 Clear 68 20 58 14.4 70 70 NW 7 11 30.04 1017 10 16 N/A
8:53 pm 20:53 Clear 66 18.9 55 12.8 68 68 NW 5 7 30.05 1018 10 16 N/A
9:53 pm 21:53 Clear 63 17.2 54 12.2 73 73 N N/A 30.06 1018 10 16 N/A
10:53 pm 22:53 Clear 60 15.6 52 11.1 75 75 N N/A 30.07 1018 10 16 N/A
11:53 pm 23:53 Clear 59 15 50 10 72 72 N N/A 30.08 1019 10 16 N/A

Powered by AerisWeather